This demonstration page uses our WeatherBlox Daily Observations layout. Learn more.

Left ArrowRight Arrow

53.62937, 11.41316

Hourly Observations for January 13, 2022

Temp ( °F °C ) Dew Point ( °F °C ) Humidity (%) Winds ( mph kmh ) Pressure ( in mb ) Visibility ( mi km ) Precip ( " mm )
12:20 am 00:20 Mostly Cloudy 41 5 41 5 100 100 WSW 12 19 30.57 1035 3 5 N/A
12:50 am 00:50 Mostly Cloudy 41 5 41 5 100 100 WSW 12 19 30.57 1035 3 5 N/A
1:20 am 01:20 Mostly Cloudy 41 5 41 5 100 100 WSW 12 19 30.57 1035 2 4 N/A
1:50 am 01:50 Mostly Cloudy 41 5 41 5 100 100 WSW 10 17 30.57 1035 2 4 N/A
2:20 am 02:20 Partly Cloudy 41 5 41 5 100 100 WSW 10 17 30.57 1035 2 3 N/A
2:50 am 02:50 Partly Cloudy 41 5 41 5 100 100 WSW 9 15 30.57 1035 2 3 N/A
3:20 am 03:20 Mostly Cloudy 41 5 41 5 100 100 WSW 12 19 30.54 1034 2 4 N/A
3:50 am 03:50 Mostly Cloudy 43 6 41 5 93 93 WSW 12 19 30.54 1034 2 4 N/A
4:20 am 04:20 Mostly Cloudy 43 6 43 6 100 100 W 13 20 30.54 1034 3 5 N/A
4:50 am 04:50 Mostly Cloudy 43 6 41 5 93 93 W 12 19 30.54 1034 3 5 N/A
5:20 am 05:20 Cloudy 43 6 43 6 100 100 W 13 20 30.51 1033 3 5 N/A
5:50 am 05:50 Mostly Cloudy 43 6 41 5 93 93 WSW 10 17 30.51 1033 3 5 N/A
6:20 am 06:20 Cloudy 43 6 43 6 100 100 W 15 24 30.51 1033 4 6 N/A
6:50 am 06:50 Mostly Cloudy 43 6 43 6 100 100 W 14 22 30.51 1033 4 7 N/A
7:50 am 07:50 Mostly Cloudy 43 6 41 5 93 93 W 12 19 30.54 1034 5 8 N/A
8:50 am 08:50 Cloudy 43 6 43 6 100 100 W 12 19 30.54 1034 5 8 N/A
9:20 am 09:20 Cloudy 43 6 41 5 93 93 W 9 15 30.54 1034 30 48 N/A
9:50 am 09:50 Cloudy 43 6 41 5 93 93 W 12 19 30.54 1034 30 48 N/A
10:20 am 10:20 Cloudy 43 6 41 5 93 93 WSW 13 20 30.54 1034 30 48 N/A
10:50 am 10:50 Cloudy 43 6 41 5 93 93 W 12 19 30.54 1034 5 8 N/A
11:20 am 11:20 Cloudy with Mist and Fog 43 6 41 5 93 93 W 12 19 30.54 1034 3 4 N/A
11:50 am 11:50 Cloudy with Mist and Fog 43 6 43 6 100 100 W 12 19 30.54 1034 2 4 N/A
12:20 pm 12:20 Mostly Cloudy with Mist and Fog 43 6 43 6 100 100 W 13 20 30.51 1033 3 5 N/A
12:50 pm 12:50 Cloudy with Mist and Fog 43 6 43 6 100 100 W 14 22 30.51 1033 3 5 N/A
1:20 pm 13:20 Mostly Cloudy with Mist and Fog 45 7 43 6 93 93 W 13 20 30.51 1033 3 5 N/A
1:50 pm 13:50 Cloudy 45 7 43 6 93 93 W 12 19 30.51 1033 5 8 N/A
2:20 pm 14:20 Cloudy 45 7 43 6 93 93 W 13 20 30.48 1032 30 48 N/A
2:50 pm 14:50 Cloudy 45 7 43 6 93 93 W 14 22 30.48 1032 30 48 N/A
3:20 pm 15:20 Cloudy 45 7 43 6 93 93 W 13 20 30.48 1032 30 48 N/A
4:20 pm 16:20 Mostly Cloudy 45 7 41 5 87 87 W 14 22 30.48 1032 30 48 N/A
4:50 pm 16:50 Cloudy 45 7 41 5 87 87 W 14 22 30.48 1032 30 48 N/A
5:20 pm 17:20 Cloudy 45 7 41 5 87 87 W 16 26 30.48 1032 30 48 N/A
5:50 pm 17:50 Mostly Cloudy 45 7 41 5 87 87 W 14 22 30.48 1032 30 48 N/A
6:20 pm 18:20 Cloudy 45 7 41 5 87 87 W 14 22 30.48 1032 30 48 N/A
6:50 pm 18:50 Mostly Cloudy 45 7 41 5 87 87 W 14 22 30.48 1032 30 48 N/A
7:20 pm 19:20 Cloudy 45 7 41 5 87 87 W 12 19 30.48 1032 30 48 N/A
7:50 pm 19:50 Mostly Cloudy 45 7 39 4 81 81 W 12 19 30.48 1032 30 48 N/A
8:20 pm 20:20 Cloudy 45 7 39 4 81 81 W 12 19 30.45 1031 30 48 N/A
8:50 pm 20:50 Cloudy 45 7 39 4 81 81 W 14 22 30.45 1031 30 48 N/A
9:20 pm 21:20 Cloudy 45 7 39 4 81 81 W 16 26 30.45 1031 30 48 N/A
9:50 pm 21:50 Cloudy 45 7 39 4 81 81 W 14 22 30.45 1031 30 48 N/A
10:20 pm 22:20 Cloudy 45 7 39 4 81 81 W 16 26 30.45 1031 30 48 N/A
10:50 pm 22:50 Cloudy 45 7 39 4 81 81 W 15 24 30.45 1031 30 48 N/A
11:20 pm 23:20 Cloudy 45 7 39 4 81 81 W 16 26 30.45 1031 30 48 N/A
11:50 pm 23:50 Cloudy 45 7 39 4 81 81 W 15 24 30.45 1031 30 48 N/A

Powered by AerisWeather